GSAT-31

Last updated on Tue Sep 16 2025 00:02:49 GMT+0000 (Coordinated Universal Time)

1 44035U 19007B 25258.52269567 .00000108 00000+0 00000+0 0 9994 2 44035 0.0616 265.9566 0004340 328.7267 356.1171 1.00272804 24213
UTC large
Height (km)
Speed (km/s)
/
Latitude / Longitude
Inclination (degrees)
Orbital Period (minutes)
Azimuth
Elevation
Range (km)
Doppler Factor

Next 0 passes for location: London (51.5072 / 0.1276)

Sorry there are no passes over London.